SCP
0 0 0 0 0 0 0 0 0 -0 -0 0 0 0 0 0 0 0 0 0 0 0 0 0 0 0 0 0 0 0 0 0 0 0 -0 0 0 0 0 0 0 0 0 0 0 0 0 0 0 0 1 0 0 0
0 0 0 0 0 0 0 0 0 -0 0 0 0 0 0 0 0 0 0 0 0 0 0 0 0 0 0 0 0 0 0 0 0 0 0 0 0 0 0 0 0 0 0 0 0 0 0 0 0 0 0 0 0 0
0 0 0 0 0 0 0 0 -0 -0 -0 0 0 0 0 0 0 0 0 0 0 0 0 0 0 0 0 0 0 0 0 0 0 0 0 0 0 0 0 0 0 0 0 0 0 0 0 0 0 0 0 0 0 0
0 0 0 0 0 0 0 -0 -0 0 0 0 0 0 0 0 0 0 0 0 0 0 0 0 0 0 0 0 0 0 0 0 0 0 0 0 0 0 0 0 0 0 0 0 0 0 -0 0 0 0 0 0 0 0
0 0 0 0 0 0 0 0 0 0 0 0 0 0 0 0 0 0 0 0 0 0 0 0 0 0 0 0 0 0 0 0 0 0 0 0 0 0 0 0 0 0 0 -0 0 0 0 0 0 0 0 0 0 0
0 0 0 0 0 0 0 0 0 0 0 0 0 0 0 0 0 0 0 0 0 0 0 0 0 0 0 0 0 0 0 0 0 0 0 0 0 0 0 0 0 0 0 0 0 0 0 0 0 0 0 0 0 0
0 0 0 0 0 0 0 0 0 0 0 0 0 0 0 0 0 0 0 0 0 0 0 0 0 0 0 0 0 0 0 0 0 0 0 0 0 0 0 -0 0 0 -0 0 0 0 0 0 0 0 0 0 0 0
0 0 0 0 0 0 0 -0 0 0 0 0 0 0 0 0 0 0 0 0 0 0 0 0 0 0 0 0 0 0 0 0 0 0 0 0 0 0 0 0 0 -0 -0 0 0 0 0 0 0 0 0 0 0 0
0 0 0 0 0 0 0 0 0 0 0 0 0 0 0 0 0 0 0 0 0 0 0 0 0 0 0 0 0 0 0 0 0 0 0 0 0 0 0 0 0 0 0 0 0 0 0 0 0 0 0 0 0 0
0 0 0 0 0 0 0 0 0 0 0 0 0 0 0 0 0 0 0 0 0 0 0 0 0 0 0 0 0 0 0 0 0 0 0 0 0 0 0 0 0 0 0 0 0 0 0 0 0 0 0 0 0 0
0 0 0 0 0 0 0 0 0 0 0 0 0 0 0 0 0 0 0 0 0 0 0 0 0 0 0 0 0 0 0 0 0 0 0 0 0 0 0 0 0 0 0 0 0 0 0 0 0 0 0 0 0 0
0 0 0 0 0 0 0 0 0 0 0 0 0 0 0 0 0 0 0 0 0 0 0 0 0 0 0 0 0 0 0 0 0 0 0 0 0 0 0 0 0 0 0 0 0 0 0 0 0 0 0 0 0 0
0 0 0 0 0 0 0 0 0 0 0 0 0 0 0 0 0 0 0 0 0 0 0 0 0 0 0 0 0 0 0 0 0 0 0 0 0 0 0 0 0 0 0 0 0 0 0 0 0 0 0 0 0 0
0 0 0 0 0 0 0 0 0 0 0 0 0 0 0 0 0 0 0 0 0 0 0 0 0 0 0 0 0 0 0 0 0 0 0 0 0 0 0 0 0 0 0 0 0 0 0 0 0 0 0 0 0 0
0 0 0 0 0 0 0 0 0 0 0 0 0 0 0 0 0 0 0 0 0 0 0 0 0 0 0 0 0 0 0 0 0 0 0 0 0 0 0 0 0 0 0 0 0 0 0 0 0 0 0 0 0 0
0 0 0 0 0 0 0 0 0 0 0 0 0 0 0 0 0 0 0 0 0 0 0 0 0 0 0 0 0 0 0 0 0 0 0 0 0 0 0 0 0 0 0 0 0 0 0 0 0 0 0 0 0 0
0 0 0 0 0 0 0 0 0 0 0 0 0 0 0 0 0 0 0 0 0 0 0 0 0 0 0 0 0 0 0 0 0 0 0 0 0 0 0 0 0 0 0 0 0 0 0 0 0 0 0 0 0 0
0 0 0 0 0 0 0 0 0 0 0 0 0 0 0 0 0 0 0 0 0 0 0 0 0 0 0 0 0 0 0 0 0 0 0 0 0 0 0 0 0 0 0 0 0 0 0 0 0 0 0 0 0 0
0 0 0 0 0 0 0 0 0 0 0 0 0 0 0 0 0 0 0 0 0 0 0 0 0 0 0 0 0 0 0 0 0 0 0 0 0 0 0 0 0 0 0 0 0 0 0 0 0 0 0 0 0 0
-0 0 0 0 0 0 0 0 0 0 0 0 0 0 0 0 0 0 0 0 0 0 0 0 0 0 0 0 0 0 0 0 0 0 0 0 0 0 0 0 0 0 0 0 0 0 0 0 0 0 0 0 0 0
0 0 0 0 0 0 0 0 0 0 0 0 0 0 0 0 0 0 0 0 0 0 0 0 0 0 0 0 0 0 0 0 0 0 0 0 0 0 0 0 0 0 0 0 0 0 0 0 0 0 0 0 0 0
0 0 0 0 0 0 0 0 0 0 0 0 0 0 0 0 0 0 0 0 0 0 0 0 0 0 0 0 0 0 0 0 0 0 0 0 0 0 0 0 0 0 0 0 0 0 0 0 0 0 0 0 0 0
0 0 0 0 0 0 0 0 0 0 0 0 0 0 0 0 0 0 0 0 0 0 0 0 0 0 0 0 0 0 0 0 0 0 0 0 0 0 0 0 0 0 0 0 0 0 0 0 0 0 0 0 0 0
0 0 0 0 0 0 0 0 0 0 0 0 0 0 0 0 0 0 0 0 0 0 0 0 0 0 0 0 0 0 0 0 0 0 0 0 0 0 0 0 0 0 0 0 0 0 0 0 0 0 0 0 0 0
0 0 0 0 0 0 -0 -0 -0 -0 -0 0 -0 0 0 0 -0 -0 -0 0 0 0 0 0 0 0 0 0 0 0 0 0 0 0 0 0 0 0 0 0 0 0 0 0 0 0 0 0 0 0 0 0 0 0
0 0 0 0 0 0 0 0 0 0 0 -0 -0 0 0 -0 0 0 0 0 0 0 0 0 0 0 0 0 0 0 0 0 0 0 0 0 0 0 0 0 0 0 0 0 0 0 0 0 0 0 0 0 0 0
0 0 0 0 0 0 0 0 0 0 0 0 0 0 0 0 0 0 0 0 0 0 0 0 0 0 0 0 0 0 0 0 0 0 0 0 0 0 0 0 0 0 0 0 0 0 0 0 0 0 0 0 0 0
0 0 0 0 0 0 0 0 0 0 0 0 0 0 0 0 0 0 0 0 0 0 0 0 0 0 0 -0 -0 -0 0 -0 0 0 0 0 0 0 0 0 0 0 0 0 0 0 0 0 0 0 0 0 0 0
0 0 0 0 0 0 0 0 0 0 -0 -0 0 0 0 0 0 0 -0 -0 -0 -0 0 -0 -0 -0 -0 -0 -0 -0 -0 -0 -0 -0 0 -0 0 0 0 0 0 0 0 0 0 0 0 0 0 0 0 0 0 0
0 0 0 0 0 0 0 0 0 0 0 0 -0 -0 -0 -0 -0 -0 0 0 -0 -0 -0 -0 0 0 0 -0 -0 -0 -0 -0 0 -0 -0 0 0 0 0 0 0 0 0 0 0 0 0 0 0 0 0 0 0 0
0 0 0 0 0 0 0 0 0 0 0 0 -0 0 0 0 0 0 0 0 -0 -0 -0 -0 -0 -0 -0 -0 -0 -0 0 0 0 0 0 0 0 0 0 0 0 0 0 0 0 0 0 0 0 0 0 0 -0 0
0 0 0 0 0 0 0 0 0 0 0 0 0 0 0 0 0 0 0 -0 -0 -0 0 0 0 0 -0 0 0 0 0 0 -0 -0 0 0 0 0 0 0 0 0 0 0 0 0 0 0 0 -0 0 0 -0 -0
0 0 0 0 0 -0 -0 0 0 0 0 0 0 0 0 0 0 0 0 0 0 0 0 0 -0 0 -0 -0 0 -0 -0 0 0 0 -0 0 0 0 0 0 0 0 0 0 0 0 0 0 -0 -0 0 0 -0 0
Wind_Speed_500mb
54 72 74 61 54 48 45 43 42 47 39 31 29 24 19 15 11 7 9 8 3 13 7 1 6 8 7 15 16 12 9 12 13 17 17 15 10 8 18 17 8 14 13 16 14 13 22 25 12 12 9 4 7 5
59 62 65 63 58 53 49 45 41 47 40 31 35 30 24 19 16 10 0 13 14 9 9 9 11 9 4 6 11 3 6 7 14 10 14 14 9 10 8 21 10 14 9 12 12 12 10 10 13 6 7 9 2 3
63 58 56 57 60 53 50 45 44 55 41 30 35 34 29 24 20 20 8 8 4 12 22 22 13 14 7 6 7 10 11 9 4 10 21 13 9 13 14 16 20 14 15 11 14 13 16 6 17 8 8 6 2 6
56 57 55 60 52 55 47 43 44 42 26 28 33 35 32 28 24 21 7 9 7 7 13 11 21 13 13 8 8 6 5 5 9 12 23 15 18 15 17 16 11 12 8 7 14 27 26 19 11 7 9 5 6 6
55 51 55 50 47 50 48 45 47 39 28 31 35 35 32 28 24 22 15 10 14 5 10 7 3 21 17 14 12 7 5 7 18 19 17 16 31 7 20 14 15 22 14 16 15 16 13 14 3 6 7 9 10 10
55 55 54 47 46 46 43 40 39 30 28 34 35 34 30 27 23 15 7 14 16 12 9 7 7 8 17 22 19 13 11 10 16 17 18 12 4 8 13 21 18 19 16 18 25 18 14 18 16 16 17 12 11 10
53 54 50 49 51 47 41 39 38 29 35 36 36 33 31 31 34 14 2 14 27 15 9 10 11 11 16 26 25 20 14 16 18 24 19 26 18 12 18 26 35 31 25 22 21 18 23 25 23 17 16 16 17 9
51 55 51 51 48 44 37 36 34 33 38 37 35 30 27 30 28 8 5 7 32 16 10 8 4 10 23 20 27 26 19 20 21 25 16 17 24 16 12 24 30 33 32 20 21 24 25 12 16 15 21 22 16 12
47 55 57 48 41 29 26 29 26 34 40 38 32 28 24 19 19 15 8 16 35 8 9 11 10 9 25 26 24 14 21 12 13 17 30 19 17 17 12 20 23 16 17 16 14 22 24 25 20 25 26 22 18 14
48 49 44 40 33 31 32 28 28 40 43 43 43 9 14 20 19 21 5 11 15 14 11 13 24 7 25 22 20 16 15 13 10 17 13 10 24 43 32 23 17 15 18 17 15 21 28 27 27 31 28 22 19 15
45 44 38 37 37 38 35 37 38 47 50 32 14 10 12 30 20 12 11 14 18 10 18 26 25 13 16 18 16 16 8 8 8 12 10 9 11 30 37 37 35 33 29 24 22 22 24 31 33 31 28 22 21 17
43 42 40 39 39 38 39 43 48 43 26 22 16 25 29 10 11 13 10 11 11 12 19 33 30 20 20 8 13 14 8 9 10 15 8 11 15 15 14 17 17 17 26 33 31 26 24 26 31 31 29 27 23 20
40 39 36 39 38 38 41 46 49 35 35 23 12 16 12 9 5 13 16 11 10 11 19 27 29 26 9 19 11 11 10 11 6 8 11 11 9 8 7 12 17 14 15 20 24 24 22 26 27 30 33 31 26 21
38 37 35 36 37 37 39 41 45 38 23 15 14 4 10 10 13 12 14 16 12 19 29 33 31 19 21 18 12 10 11 8 12 16 20 13 20 16 3 7 12 16 19 20 21 19 20 24 27 32 33 31 28 22
43 37 32 37 35 36 36 38 41 31 6 10 9 9 15 13 5 11 3 14 18 19 27 31 24 15 17 10 8 11 10 12 11 21 17 21 13 5 2 4 7 12 15 21 22 22 24 27 30 31 30 29 25 21
43 44 37 36 34 35 36 42 36 13 4 9 10 7 9 17 16 15 19 19 20 21 25 24 11 9 15 8 17 18 11 13 7 8 19 9 7 4 3 5 7 9 11 13 16 19 24 29 31 30 28 26 23 18
45 34 53 40 38 36 35 31 20 16 8 6 11 6 18 16 19 16 17 18 17 24 15 9 10 13 11 13 19 10 20 4 16 10 9 7 7 7 4 2 4 6 9 12 15 18 22 25 28 29 29 25 19 17
47 42 47 49 39 37 28 13 4 7 5 9 8 13 12 8 8 13 9 9 16 25 22 9 7 11 9 15 15 14 3 7 5 5 6 5 5 7 7 7 5 4 7 10 14 18 22 26 28 29 25 23 20 18
37 39 53 41 32 24 11 14 8 11 16 20 12 11 13 14 9 6 15 12 9 3 4 9 10 12 15 8 11 12 3 8 11 6 4 2 1 3 5 6 6 4 5 7 11 16 21 26 25 27 23 22 22 16
31 36 44 47 25 8 8 7 9 7 13 14 21 22 21 20 17 19 22 20 19 20 18 10 18 22 15 15 7 16 14 5 10 20 18 14 10 6 7 8 9 2 7 7 11 18 22 23 24 25 22 25 26 24
27 35 39 26 16 9 5 12 13 8 6 10 20 17 16 18 20 21 21 21 21 31 30 36 32 29 17 18 15 11 14 16 26 23 25 22 14 19 19 21 21 21 24 29 29 22 26 30 28 27 30 32 35 26
17 35 23 10 2 3 4 10 10 15 9 7 18 18 12 19 21 26 20 19 26 27 28 24 23 21 22 17 21 22 28 32 31 34 37 37 37 38 42 41 39 43 42 41 38 30 35 34 29 32 34 36 32 31
25 21 11 5 2 2 3 13 9 16 9 14 16 10 12 16 16 16 12 24 30 22 18 16 15 17 21 24 25 28 30 32 38 41 42 42 42 42 43 43 42 45 47 47 41 37 35 32 31 32 35 33 32 29
10 3 5 7 9 3 8 9 5 7 10 13 10 8 13 11 15 12 13 14 11 9 4 7 16 21 24 25 30 31 29 27 30 34 37 40 44 46 46 47 46 47 47 47 45 44 42 40 40 39 39 39 40 39
3 3 6 8 7 10 10 13 13 10 9 13 13 8 11 14 11 10 12 12 9 6 4 7 13 17 23 27 29 31 28 32 36 41 42 43 47 48 46 46 47 45 43 43 44 47 47 45 46 46 46 47 48 45
5 7 6 3 8 5 7 7 7 3 2 7 9 9 14 9 7 4 7 8 11 5 1 9 18 25 29 29 34 34 34 34 37 44 49 47 50 49 53 56 54 52 46 48 49 49 49 49 49 48 48 46 46 47
5 4 5 0 2 3 6 1 3 2 3 1 3 5 3 7 2 8 8 3 4 13 20 21 22 25 33 38 42 44 46 46 48 52 53 54 53 56 55 55 59 58 54 55 55 53 50 50 52 52 52 49 45 43
2 5 3 7 6 7 5 7 6 6 8 8 6 1 7 8 4 4 2 8 19 21 23 24 25 31 32 33 32 33 39 41 46 50 56 60 61 63 62 58 59 63 64 61 56 48 52 53 55 51 47 48 45 43
3 1 1 3 3 6 7 5 5 4 2 0 3 3 3 3 4 4 8 15 20 23 26 25 17 23 20 24 29 27 29 40 44 50 54 60 62 63 53 53 60 62 62 61 54 54 61 59 46 45 47 46 47 46
6 9 5 6 3 3 5 5 7 6 5 4 1 3 3 4 5 4 8 17 21 27 28 25 19 24 32 36 33 33 38 47 51 51 60 68 71 68 58 53 56 65 63 59 60 53 43 44 61 57 46 41 44 39
2 3 3 4 3 4 8 12 10 5 5 8 9 6 3 1 3 6 13 18 21 29 32 27 21 31 41 39 48 55 64 60 51 48 50 55 60 62 61 60 59 58 61 66 62 55 58 50 45 49 52 49 51 49
6 6 4 6 7 8 7 4 4 1 1 2 2 4 4 1 3 3 14 17 23 27 31 31 32 33 34 37 32 48 46 46 45 43 34 27 27 26 28 32 31 29 38 48 51 53 47 56 48 48 47 45 50 48
6 6 5 6 9 11 12 9 6 5 5 3 1 1 2 1 2 5 13 13 20 27 31 33 32 30 29 30 37 52 47 43 32 31 26 25 28 31 29 23 22 16 18 37 37 43 39 46 50 40 36 41 48 46
Wind_Direction_500mb
203 207 211 213 215 219 226 232 242 258 255 239 232 231 233 240 244 213 274 241 156 262 46 293 321 308 275 249 255 91 200 205 219 243 255 238 266 163 271 265 241 269 302 287 264 300 290 25 341 352 39 317 311 22
199 205 209 215 217 221 228 228 238 260 261 247 231 226 226 229 230 210 42 270 225 246 347 281 245 255 277 339 325 252 343 316 6 253 234 275 213 243 272 289 81 260 292 327 350 326 352 313 326 325 276 275 310 339
200 201 203 208 212 210 222 232 243 255 267 240 224 217 220 221 219 208 194 263 270 266 265 241 238 215 230 247 241 273 225 356 308 327 308 313 281 294 272 232 255 198 173 249 271 258 307 333 297 268 240 262 186 143
196 196 200 197 202 208 218 228 246 262 257 232 214 210 213 214 214 206 167 240 207 282 268 162 218 232 218 209 204 232 296 323 292 278 264 259 263 248 258 294 309 33 130 215 272 265 263 259 236 299 194 203 193 182
193 186 188 191 197 211 219 232 246 256 250 214 203 204 205 206 206 204 214 225 209 236 313 132 207 209 224 209 208 215 228 255 244 230 230 246 257 306 261 300 282 261 241 267 284 347 319 308 238 215 236 231 215 188
195 203 201 197 198 204 212 225 246 251 227 204 196 195 194 191 183 150 208 231 215 211 280 240 158 201 211 204 206 209 218 236 245 257 256 256 44 305 261 261 252 269 273 250 277 303 283 271 278 267 263 222 197 198
198 198 192 198 202 207 216 232 251 246 204 192 189 186 183 178 168 199 256 171 197 183 231 246 199 185 196 195 204 212 222 234 247 253 244 259 240 206 264 261 270 272 265 253 263 255 259 256 252 236 228 179 173 177
193 191 188 187 193 200 213 236 243 198 185 180 177 175 174 176 181 172 245 210 169 182 221 255 148 176 183 189 203 215 223 217 228 241 234 258 242 239 258 254 257 261 259 256 245 241 242 250 222 203 185 177 179 190
177 172 174 177 185 194 213 199 189 172 169 163 155 151 145 155 179 195 206 170 171 215 252 214 208 176 170 207 198 177 223 224 216 237 235 236 230 224 243 244 249 239 223 223 231 227 221 223 212 195 193 198 208 195
169 163 167 176 178 183 188 178 176 160 151 143 136 142 174 177 176 154 105 154 181 221 233 252 241 154 183 175 180 184 188 233 214 213 206 237 248 245 234 241 238 223 222 232 235 224 220 224 219 206 207 213 211 188
165 167 172 171 176 174 174 163 156 148 144 140 162 165 141 151 144 189 192 207 191 216 210 220 214 173 206 194 193 210 177 208 239 184 209 223 244 226 230 237 239 243 243 240 240 245 238 231 226 206 207 196 183 174
164 169 169 171 170 168 168 164 158 143 158 162 118 123 136 173 189 185 202 204 215 222 173 200 189 208 161 213 227 156 239 203 246 125 222 240 251 208 208 218 221 239 238 235 234 234 232 217 213 203 195 190 180 167
168 170 171 172 171 169 171 169 154 159 163 146 149 160 180 169 149 202 196 190 198 185 158 183 178 181 148 208 224 186 229 225 157 221 227 242 113 143 197 241 241 247 226 211 211 212 217 209 201 193 187 184 175 162
174 167 169 168 168 164 163 167 163 155 147 190 159 119 207 194 216 199 214 202 158 169 172 182 177 191 203 182 206 221 224 231 225 224 227 241 178 145 189 266 246 230 212 200 196 199 201 197 189 186 186 182 174 169
175 168 159 167 166 165 168 173 170 157 187 181 186 210 200 217 246 172 50 101 145 163 166 181 171 216 181 217 209 231 191 232 218 236 238 98 106 121 208 277 245 221 209 210 213 217 219 205 193 190 187 182 179 177
170 172 170 158 158 160 163 166 169 153 198 196 213 224 206 190 156 181 192 165 167 176 171 179 162 205 200 227 198 218 223 233 260 97 85 82 49 35 310 261 240 225 214 214 212 213 210 197 194 192 188 187 188 187
153 149 170 152 149 146 150 160 154 187 235 200 205 240 194 218 173 166 183 156 180 182 190 188 212 196 218 217 223 232 240 321 77 87 75 60 27 19 2 264 226 211 201 203 200 188 190 191 191 192 194 198 203 210
141 146 145 150 146 151 156 164 139 169 213 217 234 197 215 227 147 152 170 173 198 205 208 205 282 218 220 220 231 227 164 57 17 50 86 74 55 57 63 69 82 134 172 189 194 187 185 190 195 199 207 210 210 211
154 160 160 141 137 137 140 182 198 196 198 204 203 192 206 201 201 191 180 178 224 212 210 212 235 233 234 270 311 348 17 253 245 203 210 221 166 97 78 74 75 100 140 174 188 201 202 205 214 211 216 215 220 235
138 155 158 166 158 121 146 145 176 201 196 200 209 218 222 224 224 221 227 224 217 213 221 229 246 256 283 303 304 269 316 269 257 236 215 211 232 261 274 278 284 227 286 252 240 230 219 220 224 223 227 242 247 257
142 157 153 160 178 190 181 165 174 169 177 199 207 209 213 207 218 224 220 221 239 243 253 260 264 268 282 273 267 289 291 282 271 280 291 287 274 275 263 267 271 272 267 265 256 243 229 241 242 253 254 253 264 271
140 163 163 176 210 162 201 176 179 166 189 221 185 200 223 220 224 220 216 219 224 227 232 241 255 264 278 259 260 272 268 267 269 268 269 268 267 269 270 268 265 268 266 263 255 249 247 244 254 254 262 253 256 250
126 134 142 180 209 195 186 162 177 177 180 180 171 193 209 203 202 192 215 223 230 231 237 241 255 260 267 274 271 270 268 267 266 266 266 266 265 266 267 267 264 265 266 262 258 252 247 249 252 255 243 246 243 244
135 161 213 196 196 169 157 190 175 191 177 178 200 207 186 168 179 210 233 219 153 179 225 256 265 265 260 255 262 265 271 267 266 271 267 265 265 264 263 264 263 260 258 258 255 252 247 249 249 246 244 251 252 249
260 207 189 230 205 187 187 179 190 194 205 189 202 208 167 169 196 215 204 127 134 141 189 266 283 287 290 287 283 281 284 288 291 287 272 267 268 269 267 264 260 257 258 258 257 254 253 252 252 252 251 250 251 253
255 181 212 195 149 187 183 192 173 171 204 181 215 172 194 215 234 113 77 81 73 92 326 314 307 297 286 283 288 289 292 293 293 281 270 266 273 277 269 267 266 262 254 252 254 255 253 252 253 253 252 252 254 255
253 136 138 64 329 246 255 0 351 250 217 264 25 334 258 221 96 74 124 99 345 309 307 304 299 292 289 290 291 293 295 291 284 278 275 268 262 260 261 261 259 257 259 261 261 259 257 257 256 251 251 251 250 252
343 319 25 32 25 0 340 17 36 36 10 12 297 231 344 23 75 106 167 306 312 318 319 312 303 300 298 298 300 301 303 301 295 288 281 274 269 264 257 257 256 255 254 254 254 253 251 256 256 255 253 255 261 253
199 138 76 94 34 72 49 48 65 53 359 356 313 33 108 138 150 261 313 324 329 324 322 321 313 312 314 315 317 309 323 323 318 308 302 295 293 282 271 262 260 257 252 248 250 256 248 240 241 246 248 251 250 251
51 348 33 68 55 56 82 108 108 94 54 48 124 162 151 200 209 27 336 321 337 331 323 320 320 332 328 326 326 325 321 319 315 306 298 294 292 293 286 275 266 251 248 252 252 244 244 247 234 233 239 241 236 238
104 86 86 65 89 138 125 134 127 93 63 57 49 72 108 134 227 306 329 329 340 353 348 336 325 321 328 310 315 324 329 330 328 320 310 300 293 291 289 286 278 266 247 242 242 241 231 226 224 227 227 229 225 233
166 209 203 145 158 177 162 205 261 98 153 359 73 63 49 118 306 348 326 346 350 340 337 336 328 321 332 338 350 349 343 346 0 10 14 5 2 350 341 334 319 265 242 231 232 228 223 217 215 221 220 224 218 219
167 160 156 147 168 186 206 197 205 185 189 219 131 43 64 8 261 317 336 333 334 335 336 339 333 331 338 351 353 4 8 13 0 344 332 343 346 334 328 330 328 306 239 234 236 208 205 205 207 214 222 220 213 213
Wind_Speed_850mb
54 72 74 61 54 48 45 43 42 47 39 31 29 24 19 15 11 7 9 8 3 13 7 1 6 8 7 15 16 12 9 12 13 17 17 15 10 8 18 17 8 14 13 16 14 13 22 25 12 12 9 4 7 5
59 62 65 63 58 53 49 45 41 47 40 31 35 30 24 19 16 10 0 13 14 9 9 9 11 9 4 6 11 3 6 7 14 10 14 14 9 10 8 21 10 14 9 12 12 12 10 10 13 6 7 9 2 3
63 58 56 57 60 53 50 45 44 55 41 30 35 34 29 24 20 20 8 8 4 12 22 22 13 14 7 6 7 10 11 9 4 10 21 13 9 13 14 16 20 14 15 11 14 13 16 6 17 8 8 6 2 6
56 57 55 60 52 55 47 43 44 42 26 28 33 35 32 28 24 21 7 9 7 7 13 11 21 13 13 8 8 6 5 5 9 12 23 15 18 15 17 16 11 12 8 7 14 27 26 19 11 7 9 5 6 6
55 51 55 50 47 50 48 45 47 39 28 31 35 35 32 28 24 22 15 10 14 5 10 7 3 21 17 14 12 7 5 7 18 19 17 16 31 7 20 14 15 22 14 16 15 16 13 14 3 6 7 9 10 10
55 55 54 47 46 46 43 40 39 30 28 34 35 34 30 27 23 15 7 14 16 12 9 7 7 8 17 22 19 13 11 10 16 17 18 12 4 8 13 21 18 19 16 18 25 18 14 18 16 16 17 12 11 10
53 54 50 49 51 47 41 39 38 29 35 36 36 33 31 31 34 14 2 14 27 15 9 10 11 11 16 26 25 20 14 16 18 24 19 26 18 12 18 26 35 31 25 22 21 18 23 25 23 17 16 16 17 9
51 55 51 51 48 44 37 36 34 33 38 37 35 30 27 30 28 8 5 7 32 16 10 8 4 10 23 20 27 26 19 20 21 25 16 17 24 16 12 24 30 33 32 20 21 24 25 12 16 15 21 22 16 12
47 55 57 48 41 29 26 29 26 34 40 38 32 28 24 19 19 15 8 16 35 8 9 11 10 9 25 26 24 14 21 12 13 17 30 19 17 17 12 20 23 16 17 16 14 22 24 25 20 25 26 22 18 14
48 49 44 40 33 31 32 28 28 40 43 43 43 9 14 20 19 21 5 11 15 14 11 13 24 7 25 22 20 16 15 13 10 17 13 10 24 43 32 23 17 15 18 17 15 21 28 27 27 31 28 22 19 15
45 44 38 37 37 38 35 37 38 47 50 32 14 10 12 30 20 12 11 14 18 10 18 26 25 13 16 18 16 16 8 8 8 12 10 9 11 30 37 37 35 33 29 24 22 22 24 31 33 31 28 22 21 17
43 42 40 39 39 38 39 43 48 43 26 22 16 25 29 10 11 13 10 11 11 12 19 33 30 20 20 8 13 14 8 9 10 15 8 11 15 15 14 17 17 17 26 33 31 26 24 26 31 31 29 27 23 20
40 39 36 39 38 38 41 46 49 35 35 23 12 16 12 9 5 13 16 11 10 11 19 27 29 26 9 19 11 11 10 11 6 8 11 11 9 8 7 12 17 14 15 20 24 24 22 26 27 30 33 31 26 21
38 37 35 36 37 37 39 41 45 38 23 15 14 4 10 10 13 12 14 16 12 19 29 33 31 19 21 18 12 10 11 8 12 16 20 13 20 16 3 7 12 16 19 20 21 19 20 24 27 32 33 31 28 22
43 37 32 37 35 36 36 38 41 31 6 10 9 9 15 13 5 11 3 14 18 19 27 31 24 15 17 10 8 11 10 12 11 21 17 21 13 5 2 4 7 12 15 21 22 22 24 27 30 31 30 29 25 21
43 44 37 36 34 35 36 42 36 13 4 9 10 7 9 17 16 15 19 19 20 21 25 24 11 9 15 8 17 18 11 13 7 8 19 9 7 4 3 5 7 9 11 13 16 19 24 29 31 30 28 26 23 18
45 34 53 40 38 36 35 31 20 16 8 6 11 6 18 16 19 16 17 18 17 24 15 9 10 13 11 13 19 10 20 4 16 10 9 7 7 7 4 2 4 6 9 12 15 18 22 25 28 29 29 25 19 17
47 42 47 49 39 37 28 13 4 7 5 9 8 13 12 8 8 13 9 9 16 25 22 9 7 11 9 15 15 14 3 7 5 5 6 5 5 7 7 7 5 4 7 10 14 18 22 26 28 29 25 23 20 18
37 39 53 41 32 24 11 14 8 11 16 20 12 11 13 14 9 6 15 12 9 3 4 9 10 12 15 8 11 12 3 8 11 6 4 2 1 3 5 6 6 4 5 7 11 16 21 26 25 27 23 22 22 16
31 36 44 47 25 8 8 7 9 7 13 14 21 22 21 20 17 19 22 20 19 20 18 10 18 22 15 15 7 16 14 5 10 20 18 14 10 6 7 8 9 2 7 7 11 18 22 23 24 25 22 25 26 24
27 35 39 26 16 9 5 12 13 8 6 10 20 17 16 18 20 21 21 21 21 31 30 36 32 29 17 18 15 11 14 16 26 23 25 22 14 19 19 21 21 21 24 29 29 22 26 30 28 27 30 32 35 26
17 35 23 10 2 3 4 10 10 15 9 7 18 18 12 19 21 26 20 19 26 27 28 24 23 21 22 17 21 22 28 32 31 34 37 37 37 38 42 41 39 43 42 41 38 30 35 34 29 32 34 36 32 31
25 21 11 5 2 2 3 13 9 16 9 14 16 10 12 16 16 16 12 24 30 22 18 16 15 17 21 24 25 28 30 32 38 41 42 42 42 42 43 43 42 45 47 47 41 37 35 32 31 32 35 33 32 29
10 3 5 7 9 3 8 9 5 7 10 13 10 8 13 11 15 12 13 14 11 9 4 7 16 21 24 25 30 31 29 27 30 34 37 40 44 46 46 47 46 47 47 47 45 44 42 40 40 39 39 39 40 39
3 3 6 8 7 10 10 13 13 10 9 13 13 8 11 14 11 10 12 12 9 6 4 7 13 17 23 27 29 31 28 32 36 41 42 43 47 48 46 46 47 45 43 43 44 47 47 45 46 46 46 47 48 45
5 7 6 3 8 5 7 7 7 3 2 7 9 9 14 9 7 4 7 8 11 5 1 9 18 25 29 29 34 34 34 34 37 44 49 47 50 49 53 56 54 52 46 48 49 49 49 49 49 48 48 46 46 47
5 4 5 0 2 3 6 1 3 2 3 1 3 5 3 7 2 8 8 3 4 13 20 21 22 25 33 38 42 44 46 46 48 52 53 54 53 56 55 55 59 58 54 55 55 53 50 50 52 52 52 49 45 43
2 5 3 7 6 7 5 7 6 6 8 8 6 1 7 8 4 4 2 8 19 21 23 24 25 31 32 33 32 33 39 41 46 50 56 60 61 63 62 58 59 63 64 61 56 48 52 53 55 51 47 48 45 43
3 1 1 3 3 6 7 5 5 4 2 0 3 3 3 3 4 4 8 15 20 23 26 25 17 23 20 24 29 27 29 40 44 50 54 60 62 63 53 53 60 62 62 61 54 54 61 59 46 45 47 46 47 46
6 9 5 6 3 3 5 5 7 6 5 4 1 3 3 4 5 4 8 17 21 27 28 25 19 24 32 36 33 33 38 47 51 51 60 68 71 68 58 53 56 65 63 59 60 53 43 44 61 57 46 41 44 39
2 3 3 4 3 4 8 12 10 5 5 8 9 6 3 1 3 6 13 18 21 29 32 27 21 31 41 39 48 55 64 60 51 48 50 55 60 62 61 60 59 58 61 66 62 55 58 50 45 49 52 49 51 49
6 6 4 6 7 8 7 4 4 1 1 2 2 4 4 1 3 3 14 17 23 27 31 31 32 33 34 37 32 48 46 46 45 43 34 27 27 26 28 32 31 29 38 48 51 53 47 56 48 48 47 45 50 48
6 6 5 6 9 11 12 9 6 5 5 3 1 1 2 1 2 5 13 13 20 27 31 33 32 30 29 30 37 52 47 43 32 31 26 25 28 31 29 23 22 16 18 37 37 43 39 46 50 40 36 41 48 46
Wind_Direction_850mb
203 207 211 213 215 219 226 232 242 258 255 239 232 231 233 240 244 213 274 241 156 262 46 293 321 308 275 249 255 91 200 205 219 243 255 238 266 163 271 265 241 269 302 287 264 300 290 25 341 352 39 317 311 22
199 205 209 215 217 221 228 228 238 260 261 247 231 226 226 229 230 210 42 270 225 246 347 281 245 255 277 339 325 252 343 316 6 253 234 275 213 243 272 289 81 260 292 327 350 326 352 313 326 325 276 275 310 339
200 201 203 208 212 210 222 232 243 255 267 240 224 217 220 221 219 208 194 263 270 266 265 241 238 215 230 247 241 273 225 356 308 327 308 313 281 294 272 232 255 198 173 249 271 258 307 333 297 268 240 262 186 143
196 196 200 197 202 208 218 228 246 262 257 232 214 210 213 214 214 206 167 240 207 282 268 162 218 232 218 209 204 232 296 323 292 278 264 259 263 248 258 294 309 33 130 215 272 265 263 259 236 299 194 203 193 182
193 186 188 191 197 211 219 232 246 256 250 214 203 204 205 206 206 204 214 225 209 236 313 132 207 209 224 209 208 215 228 255 244 230 230 246 257 306 261 300 282 261 241 267 284 347 319 308 238 215 236 231 215 188
195 203 201 197 198 204 212 225 246 251 227 204 196 195 194 191 183 150 208 231 215 211 280 240 158 201 211 204 206 209 218 236 245 257 256 256 44 305 261 261 252 269 273 250 277 303 283 271 278 267 263 222 197 198
198 198 192 198 202 207 216 232 251 246 204 192 189 186 183 178 168 199 256 171 197 183 231 246 199 185 196 195 204 212 222 234 247 253 244 259 240 206 264 261 270 272 265 253 263 255 259 256 252 236 228 179 173 177
193 191 188 187 193 200 213 236 243 198 185 180 177 175 174 176 181 172 245 210 169 182 221 255 148 176 183 189 203 215 223 217 228 241 234 258 242 239 258 254 257 261 259 256 245 241 242 250 222 203 185 177 179 190
177 172 174 177 185 194 213 199 189 172 169 163 155 151 145 155 179 195 206 170 171 215 252 214 208 176 170 207 198 177 223 224 216 237 235 236 230 224 243 244 249 239 223 223 231 227 221 223 212 195 193 198 208 195
169 163 167 176 178 183 188 178 176 160 151 143 136 142 174 177 176 154 105 154 181 221 233 252 241 154 183 175 180 184 188 233 214 213 206 237 248 245 234 241 238 223 222 232 235 224 220 224 219 206 207 213 211 188
165 167 172 171 176 174 174 163 156 148 144 140 162 165 141 151 144 189 192 207 191 216 210 220 214 173 206 194 193 210 177 208 239 184 209 223 244 226 230 237 239 243 243 240 240 245 238 231 226 206 207 196 183 174
164 169 169 171 170 168 168 164 158 143 158 162 118 123 136 173 189 185 202 204 215 222 173 200 189 208 161 213 227 156 239 203 246 125 222 240 251 208 208 218 221 239 238 235 234 234 232 217 213 203 195 190 180 167
168 170 171 172 171 169 171 169 154 159 163 146 149 160 180 169 149 202 196 190 198 185 158 183 178 181 148 208 224 186 229 225 157 221 227 242 113 143 197 241 241 247 226 211 211 212 217 209 201 193 187 184 175 162
174 167 169 168 168 164 163 167 163 155 147 190 159 119 207 194 216 199 214 202 158 169 172 182 177 191 203 182 206 221 224 231 225 224 227 241 178 145 189 266 246 230 212 200 196 199 201 197 189 186 186 182 174 169
175 168 159 167 166 165 168 173 170 157 187 181 186 210 200 217 246 172 50 101 145 163 166 181 171 216 181 217 209 231 191 232 218 236 238 98 106 121 208 277 245 221 209 210 213 217 219 205 193 190 187 182 179 177
170 172 170 158 158 160 163 166 169 153 198 196 213 224 206 190 156 181 192 165 167 176 171 179 162 205 200 227 198 218 223 233 260 97 85 82 49 35 310 261 240 225 214 214 212 213 210 197 194 192 188 187 188 187
153 149 170 152 149 146 150 160 154 187 235 200 205 240 194 218 173 166 183 156 180 182 190 188 212 196 218 217 223 232 240 321 77 87 75 60 27 19 2 264 226 211 201 203 200 188 190 191 191 192 194 198 203 210
141 146 145 150 146 151 156 164 139 169 213 217 234 197 215 227 147 152 170 173 198 205 208 205 282 218 220 220 231 227 164 57 17 50 86 74 55 57 63 69 82 134 172 189 194 187 185 190 195 199 207 210 210 211
154 160 160 141 137 137 140 182 198 196 198 204 203 192 206 201 201 191 180 178 224 212 210 212 235 233 234 270 311 348 17 253 245 203 210 221 166 97 78 74 75 100 140 174 188 201 202 205 214 211 216 215 220 235
138 155 158 166 158 121 146 145 176 201 196 200 209 218 222 224 224 221 227 224 217 213 221 229 246 256 283 303 304 269 316 269 257 236 215 211 232 261 274 278 284 227 286 252 240 230 219 220 224 223 227 242 247 257
142 157 153 160 178 190 181 165 174 169 177 199 207 209 213 207 218 224 220 221 239 243 253 260 264 268 282 273 267 289 291 282 271 280 291 287 274 275 263 267 271 272 267 265 256 243 229 241 242 253 254 253 264 271
140 163 163 176 210 162 201 176 179 166 189 221 185 200 223 220 224 220 216 219 224 227 232 241 255 264 278 259 260 272 268 267 269 268 269 268 267 269 270 268 265 268 266 263 255 249 247 244 254 254 262 253 256 250
126 134 142 180 209 195 186 162 177 177 180 180 171 193 209 203 202 192 215 223 230 231 237 241 255 260 267 274 271 270 268 267 266 266 266 266 265 266 267 267 264 265 266 262 258 252 247 249 252 255 243 246 243 244
135 161 213 196 196 169 157 190 175 191 177 178 200 207 186 168 179 210 233 219 153 179 225 256 265 265 260 255 262 265 271 267 266 271 267 265 265 264 263 264 263 260 258 258 255 252 247 249 249 246 244 251 252 249
260 207 189 230 205 187 187 179 190 194 205 189 202 208 167 169 196 215 204 127 134 141 189 266 283 287 290 287 283 281 284 288 291 287 272 267 268 269 267 264 260 257 258 258 257 254 253 252 252 252 251 250 251 253
255 181 212 195 149 187 183 192 173 171 204 181 215 172 194 215 234 113 77 81 73 92 326 314 307 297 286 283 288 289 292 293 293 281 270 266 273 277 269 267 266 262 254 252 254 255 253 252 253 253 252 252 254 255
253 136 138 64 329 246 255 0 351 250 217 264 25 334 258 221 96 74 124 99 345 309 307 304 299 292 289 290 291 293 295 291 284 278 275 268 262 260 261 261 259 257 259 261 261 259 257 257 256 251 251 251 250 252
343 319 25 32 25 0 340 17 36 36 10 12 297 231 344 23 75 106 167 306 312 318 319 312 303 300 298 298 300 301 303 301 295 288 281 274 269 264 257 257 256 255 254 254 254 253 251 256 256 255 253 255 261 253
199 138 76 94 34 72 49 48 65 53 359 356 313 33 108 138 150 261 313 324 329 324 322 321 313 312 314 315 317 309 323 323 318 308 302 295 293 282 271 262 260 257 252 248 250 256 248 240 241 246 248 251 250 251
51 348 33 68 55 56 82 108 108 94 54 48 124 162 151 200 209 27 336 321 337 331 323 320 320 332 328 326 326 325 321 319 315 306 298 294 292 293 286 275 266 251 248 252 252 244 244 247 234 233 239 241 236 238
104 86 86 65 89 138 125 134 127 93 63 57 49 72 108 134 227 306 329 329 340 353 348 336 325 321 328 310 315 324 329 330 328 320 310 300 293 291 289 286 278 266 247 242 242 241 231 226 224 227 227 229 225 233
166 209 203 145 158 177 162 205 261 98 153 359 73 63 49 118 306 348 326 346 350 340 337 336 328 321 332 338 350 349 343 346 0 10 14 5 2 350 341 334 319 265 242 231 232 228 223 217 215 221 220 224 218 219
167 160 156 147 168 186 206 197 205 185 189 219 131 43 64 8 261 317 336 333 334 335 336 339 333 331 338 351 353 4 8 13 0 344 332 343 346 334 328 330 328 306 239 234 236 208 205 205 207 214 222 220 213 213